Location: Cortos
(40.7190°N, 4.5893°W)
Time: 04:35:08
(UTC+00:00)

COSMOS 2428 - Pass Details

Date: 05 July 2020
Orbit: 844 x 859 km, 70.9° (Epoch: 11 August)

Event Time Altitude Azimuth Distance (km) Brightness Sun altitude
Exits shadow 21:57:26 12° 199° (SSW) 2,282 4.6 -18.1°
Maximum altitude 22:02:37 84° 111° (ESE) 853 2.6 -18.7°
Drops below altitude 10° 22:08:18 10° 25° (NNE) 2,473 5.5 -19.3°
Sets 22:10:45 0° 25° (NNE) 3,413 6.3 -19.5°
